O3B FM6 (40081 NORAD) Tracking and Keplerian Element Data

This shows tracking and keplerian element data for the satellite.

Feedback or suggestion? Click here.




ElementValue
Catalog40081
NameO3B FM6
Epoch Orbit8098
Epoch Day348.77289326
Epoch Year2018
RAAN9.3819
Inclination0.048
Eccentricity0.0002607
Argument of Perigee253.5702
Mean Anonmoly97.0211
Mean Motion5.00117176
Decay Rate-1.8E-07
L11 40081U 14038C 18348.77289326 -.00000018 00000-0 00000+0 0 9996
L22 40081 0.0480 9.3819 0002607 253.5702 97.0211 5.00117176 80989

Live tracking and technical data element details for O3B FM6 (NORAD 40081). O3B FM6 can be tracked NOW for your location showing map with azimuth and elevation plus other details from your city location.

Track the satellite on the map from your city or location and see movement details for azimuth, elevation, latitude, longitude, range, height, and movement on the map or in text.







IsCatalogInMostPopularTable: catalog: 40081, numindb: 88
Update: records affected: 1



GetName: 40081 O3B FM6

Hit Count: updated at: Sat, 15 Dec 2018 14:00:52 GMT